Location: Azul
(36.7830°S, 59.8500°W)
Time: 11:04:15
(UTC-03:00)

ISS - Pass Details

Date: 07 March 2021
Orbit: 418 x 422 km, 51.6° (Epoch: 16 April)

Event Time Altitude Azimuth Distance (km) Brightness Sun altitude
Rises 20:20:58 0° 238° (WSW) 2,403 1.7 -11.0°
Reaches altitude 10° 20:23:14 10° 248° (WSW) 1,529 0.6 -11.5°
Maximum altitude 20:26:19 31° 312° (NW) 772 -2.1 -12.1°
Drops below altitude 10° 20:29:22 10° 16° (NNE) 1,510 -1.3 -12.6°
Enters shadow 20:29:43 - 19° (NNE) 1,641 -1.1 -12.7°
